Location: Cold Norton
(51.6667°N, 0.6667°E)
Time: 18:25:12
(UTC+00:00)

Cosmos 1190 Rocket - Pass Details

Date: 18 November 2025
Orbit: 752 x 775 km, 74.1° (Epoch: 10 December)

Event Time Altitude Azimuth Distance (km) Brightness Sun altitude
Rises 17:54:32 0° 191° (S) 3,241 7.5 -16.9°
Reaches altitude 10° 17:56:56 10° 188° (S) 2,319 6.7 -17.3°
Maximum altitude 18:02:07 60° 109° (ESE) 885 4.0 -18.1°
Enters shadow 18:05:25 22° 36° (NE) 1,635 5.3 -18.6°
